[ hide orbit diagram ]
For accurate long-term ephemerides, please instead use our Horizons system.This orbit viewer was implemented using two-body methods, and hence should not be used for determining accurate long-term trajectories (over several years or decades) or planetary encounter circumstances.
[ revert to old Java-based viewer ]
Orbital Elements at Epoch 2458600.5 (2019-Apr-27.0) TDB
Reference: JPL 12 (heliocentric ecliptic J2000)
Element | Value | Uncertainty (1-sigma) | Units |
e | .1787851357846468 | 7.5653e-08 | |
a | 2.248618955310072 | 1.4495e-08 | au |
q | 1.84659931005703 | 1.6637e-07 | au |
i | 8.120390764691649 | 5.8965e-06 | deg |
node | 52.6571817210715 | 5.1409e-05 | deg |
peri | 270.6498216201907 | 5.4432e-05 | deg |
M | 155.5334841234675 | 1.9235e-05 | deg |
tp | 2458068.399547928311 (2017-Nov-10.89954793) | 6.3682e-05 | TDB |
period | 1231.607224806618 3.37 | 1.1908e-05 3.26e-08 | d yr |
n | .2923009809856593 | 2.8263e-09 | deg/d |
Q | 2.650638600563114 | 1.7086e-08 | au |
|
| | Orbit Determination Parameters
Additional Information
|
[ show covariance matrix ]
Physical Parameter Table
Parameter |
Symbol |
Value |
Units |
Sigma |
Reference |
Notes |
absolute magnitude |
H |
16.5 |
|
n/a |
MPO459734 |
|
|
160508 (4319 T-3) Discovered 1977-Oct-16 by van Houten, C. J., van Houten-Groeneveld, I., Gehrels, T. at Palomar |
Reference: 20070730/Numbers.arc | Last Updated: 2007-08-06 |
|
[ show close-approach data ]
Alternate Designations
4319 T-3 = 2000 KM14 = 2003 FZ1 = 2004 SK33 |
|
|